Time,TemperatureF,DewpointF,PressureIn,WindDirection,WindDirectionDegrees,WindSpeedMPH,WindSpeedGustMPH,Humidity,HourlyPrecipIn,Conditions,Clouds,dailyrainin,SolarRadiationWatts/m^2,SoftwareType,DateUTC
2013-05-21 00:12:00,61.0,59.0,-100.00,NNW,348,5.0,8.0,94,0.00,,,0.19,0.000000,,2013-05-21 10:12:00,
2013-05-21 00:22:00,61.0,59.0,-100.00,NNW,348,5.0,8.0,94,0.00,,,0.19,0.000000,,2013-05-21 10:22:00,
2013-05-21 00:32:00,61.0,59.0,-100.00,NNW,348,5.0,8.0,94,0.00,,,0.19,0.000000,,2013-05-21 10:32:00,
2013-05-21 00:41:00,61.0,59.0,-100.00,NNW,348,5.0,8.0,94,0.00,,,0.19,0.000000,,2013-05-21 10:41:00,
2013-05-21 01:11:00,60.0,58.0,-100.00,NNW,327,7.0,9.0,93,0.00,,,0.19,0.000000,,2013-05-21 11:11:00,
2013-05-21 01:21:00,60.0,58.0,-100.00,NNW,327,7.0,9.0,93,0.00,,,0.19,0.000000,,2013-05-21 11:21:00,
2013-05-21 01:32:00,60.0,58.0,-100.00,NNW,327,7.0,9.0,93,0.00,,,0.19,0.000000,,2013-05-21 11:32:00,
2013-05-21 01:41:00,60.0,58.0,-100.00,NNW,327,7.0,9.0,93,0.00,,,0.19,0.000000,,2013-05-21 11:41:00,
2013-05-21 02:11:00,58.0,56.0,-100.00,NNW,338,6.0,7.0,93,0.01,,,0.20,0.000000,,2013-05-21 12:11:00,
2013-05-21 02:21:00,58.0,56.0,-100.00,NNW,338,6.0,7.0,93,0.01,,,0.20,0.000000,,2013-05-21 12:21:00,
2013-05-21 02:31:00,58.0,56.0,-100.00,NNW,338,6.0,7.0,93,0.01,,,0.20,0.000000,,2013-05-21 12:31:00,
2013-05-21 02:41:00,58.0,56.0,-100.00,NNW,338,6.0,7.0,93,0.01,,,0.20,0.000000,,2013-05-21 12:41:00,
2013-05-21 03:11:00,58.0,56.0,-100.00,NNW,332,6.0,9.0,93,0.00,,,0.20,0.000000,,2013-05-21 13:11:00,
2013-05-21 03:22:00,58.0,56.0,-100.00,NNW,332,6.0,9.0,93,0.00,,,0.20,0.000000,,2013-05-21 13:22:00,
2013-05-21 03:31:00,58.0,56.0,-100.00,NNW,332,6.0,9.0,93,0.00,,,0.20,0.000000,,2013-05-21 13:31:00,
2013-05-21 03:41:00,58.0,56.0,-100.00,NNW,332,6.0,9.0,93,0.00,,,0.20,0.000000,,2013-05-21 13:41:00,
2013-05-21 04:11:00,58.0,56.0,-100.00,NNW,347,5.0,9.0,93,0.00,,,0.20,0.000000,,2013-05-21 14:11:00,
2013-05-21 04:21:00,58.0,56.0,-100.00,NNW,347,5.0,9.0,93,0.00,,,0.20,0.000000,,2013-05-21 14:21:00,
2013-05-21 04:31:00,58.0,56.0,-100.00,NNW,347,5.0,9.0,93,0.00,,,0.20,0.000000,,2013-05-21 14:31:00,
2013-05-21 04:41:00,58.0,56.0,-100.00,NNW,347,5.0,9.0,93,0.00,,,0.20,0.000000,,2013-05-21 14:41:00,
2013-05-21 05:11:00,58.0,56.0,-100.00,North,353,6.0,8.0,93,0.00,,,0.20,0.000000,,2013-05-21 15:11:00,
2013-05-21 05:21:00,58.0,56.0,-100.00,North,353,6.0,8.0,93,0.00,,,0.20,0.000000,,2013-05-21 15:21:00,
2013-05-21 05:33:00,58.0,56.0,-100.00,North,353,6.0,8.0,93,0.00,,,0.20,0.000000,,2013-05-21 15:33:00,
2013-05-21 05:42:00,58.0,56.0,-100.00,North,353,6.0,8.0,93,0.00,,,0.20,0.000000,,2013-05-21 15:42:00,
2013-05-21 06:12:00,58.0,54.0,-100.00,NNW,332,6.0,8.0,88,0.00,,,0.20,1.000000,,2013-05-21 16:12:00,
2013-05-21 06:23:00,58.0,54.0,-100.00,NNW,332,6.0,8.0,88,0.00,,,0.20,1.000000,,2013-05-21 16:23:00,
2013-05-21 06:32:00,58.0,54.0,-100.00,NNW,332,6.0,8.0,88,0.00,,,0.20,1.000000,,2013-05-21 16:32:00,
2013-05-21 06:42:00,58.0,54.0,-100.00,NNW,332,6.0,8.0,88,0.00,,,0.20,1.000000,,2013-05-21 16:42:00,
2013-05-21 07:12:00,62.0,57.0,-100.00,NNW,330,7.0,9.0,85,0.00,,,0.20,57.000000,,2013-05-21 17:12:00,
2013-05-21 07:23:00,62.0,57.0,-100.00,NNW,330,7.0,9.0,85,0.00,,,0.20,57.000000,,2013-05-21 17:23:00,
2013-05-21 07:32:00,62.0,57.0,-100.00,NNW,330,7.0,9.0,85,0.00,,,0.20,57.000000,,2013-05-21 17:32:00,
2013-05-21 07:43:00,62.0,57.0,-100.00,NNW,330,7.0,9.0,85,0.00,,,0.20,57.000000,,2013-05-21 17:43:00,
2013-05-21 08:12:00,73.0,61.0,-100.00,NNE,28,2.0,9.0,66,0.00,,,0.20,286.000000,,2013-05-21 18:12:00,
2013-05-21 08:22:00,73.0,61.0,-100.00,NNE,28,2.0,9.0,66,0.00,,,0.20,286.000000,,2013-05-21 18:22:00,
2013-05-21 08:32:00,73.0,61.0,-100.00,NNE,28,2.0,9.0,66,0.00,,,0.20,286.000000,,2013-05-21 18:32:00,
2013-05-21 08:42:00,73.0,61.0,-100.00,NNE,28,2.0,9.0,66,0.00,,,0.20,286.000000,,2013-05-21 18:42:00,
2013-05-21 09:11:00,76.0,60.0,-100.00,SW,234,1.0,6.0,58,0.00,,,0.20,508.000000,,2013-05-21 19:11:00,
2013-05-21 09:21:00,76.0,60.0,-100.00,SW,234,1.0,6.0,58,0.00,,,0.20,508.000000,,2013-05-21 19:21:00,
2013-05-21 09:31:00,76.0,60.0,-100.00,SW,234,1.0,6.0,58,0.00,,,0.20,508.000000,,2013-05-21 19:31:00,
2013-05-21 09:41:00,76.0,60.0,-100.00,SW,234,1.0,6.0,58,0.00,,,0.20,508.000000,,2013-05-21 19:41:00,
2013-05-21 10:11:00,76.0,62.0,-100.00,SE,142,5.0,10.0,61,0.00,,,0.20,706.000000,,2013-05-21 20:11:00,
2013-05-21 10:22:00,76.0,62.0,-100.00,SE,142,5.0,10.0,61,0.00,,,0.20,706.000000,,2013-05-21 20:22:00,
2013-05-21 10:32:00,76.0,62.0,-100.00,SE,142,5.0,10.0,61,0.00,,,0.20,706.000000,,2013-05-21 20:32:00,
2013-05-21 10:42:00,76.0,62.0,-100.00,SE,142,5.0,10.0,61,0.00,,,0.20,706.000000,,2013-05-21 20:42:00,
2013-05-21 11:11:00,77.0,66.0,-100.00,South,173,6.0,12.0,70,0.00,,,0.20,813.000000,,2013-05-21 21:11:00,
2013-05-21 11:21:00,77.0,66.0,-100.00,South,173,6.0,12.0,70,0.00,,,0.20,813.000000,,2013-05-21 21:21:00,
2013-05-21 11:32:00,77.0,66.0,-100.00,South,173,6.0,12.0,70,0.00,,,0.20,813.000000,,2013-05-21 21:32:00,
2013-05-21 11:43:00,77.0,66.0,-100.00,South,173,6.0,12.0,70,0.00,,,0.20,813.000000,,2013-05-21 21:43:00,
2013-05-21 12:12:00,76.0,67.0,-100.00,SSE,162,6.0,12.0,73,0.00,,,-99.99,731.000000,,2013-05-21 22:12:00,
2013-05-21 12:22:00,76.0,67.0,-100.00,SSE,162,6.0,12.0,73,0.00,,,-99.99,731.000000,,2013-05-21 22:22:00,
2013-05-21 12:33:00,76.0,67.0,-100.00,SSE,162,6.0,12.0,73,0.00,,,-99.99,731.000000,,2013-05-21 22:33:00,
2013-05-21 12:41:00,76.0,67.0,-100.00,SSE,162,6.0,12.0,73,0.00,,,-99.99,731.000000,,2013-05-21 22:41:00,
2013-05-21 13:12:00,73.0,66.0,-100.00,SSE,153,7.0,13.0,80,0.00,,,0.18,407.000000,,2013-05-21 23:12:00,
2013-05-21 13:22:00,73.0,66.0,-100.00,SSE,153,7.0,13.0,80,0.00,,,0.18,407.000000,,2013-05-21 23:22:00,
2013-05-21 13:32:00,73.0,66.0,-100.00,SSE,153,7.0,13.0,80,0.00,,,0.18,407.000000,,2013-05-21 23:32:00,
2013-05-21 13:42:00,73.0,66.0,-100.00,SSE,153,7.0,13.0,80,0.00,,,0.18,407.000000,,2013-05-21 23:42:00,
2013-05-21 14:11:00,70.0,67.0,-100.00,SSW,200,3.0,11.0,91,0.07,,,0.25,137.000000,,2013-05-22 00:11:00,
2013-05-21 14:21:00,70.0,67.0,-100.00,SSW,200,3.0,11.0,91,0.07,,,0.25,137.000000,,2013-05-22 00:21:00,
2013-05-21 14:31:00,70.0,67.0,-100.00,SSW,200,3.0,11.0,91,0.07,,,0.25,137.000000,,2013-05-22 00:31:00,
2013-05-21 14:41:00,70.0,67.0,-100.00,SSW,200,3.0,11.0,91,0.07,,,0.25,137.000000,,2013-05-22 00:41:00,
2013-05-21 15:11:00,73.0,70.0,-100.00,East,80,1.0,6.0,89,0.07,,,0.32,244.000000,,2013-05-22 01:11:00,
2013-05-21 15:21:00,73.0,70.0,-100.00,East,80,1.0,6.0,89,0.07,,,0.32,244.000000,,2013-05-22 01:21:00,
2013-05-21 15:32:00,73.0,70.0,-100.00,East,80,1.0,6.0,89,0.07,,,0.32,244.000000,,2013-05-22 01:32:00,
2013-05-21 15:41:00,73.0,70.0,-100.00,East,80,1.0,6.0,89,0.07,,,0.32,244.000000,,2013-05-22 01:41:00,
2013-05-21 16:11:00,72.0,69.0,-100.00,SSE,154,1.0,6.0,90,0.00,,,0.32,284.000000,,2013-05-22 02:11:00,
2013-05-21 16:21:00,72.0,69.0,-100.00,SSE,154,1.0,6.0,90,0.00,,,0.32,284.000000,,2013-05-22 02:21:00,
2013-05-21 16:32:00,72.0,69.0,-100.00,SSE,154,1.0,6.0,90,0.00,,,0.32,284.000000,,2013-05-22 02:32:00,
2013-05-21 16:41:00,72.0,69.0,-100.00,SSE,154,1.0,6.0,90,0.00,,,0.32,284.000000,,2013-05-22 02:41:00,
2013-05-21 17:11:00,70.0,67.0,-100.00,SE,132,3.0,7.0,91,0.00,,,-99.99,216.000000,,2013-05-22 03:11:00,
2013-05-21 17:21:00,70.0,67.0,-100.00,SE,132,3.0,7.0,91,0.00,,,-99.99,216.000000,,2013-05-22 03:21:00,
2013-05-21 17:33:00,70.0,67.0,-100.00,SE,132,3.0,7.0,91,0.00,,,-99.99,216.000000,,2013-05-22 03:33:00,
2013-05-21 17:43:00,70.0,67.0,-100.00,SE,132,3.0,7.0,91,0.00,,,-99.99,216.000000,,2013-05-22 03:43:00,
2013-05-21 18:13:00,68.0,67.0,-100.00,West,260,4.0,7.0,95,0.14,,,0.29,34.000000,,2013-05-22 04:13:00,
2013-05-21 18:22:00,68.0,67.0,-100.00,West,260,4.0,7.0,95,0.14,,,0.29,34.000000,,2013-05-22 04:22:00,
2013-05-21 18:33:00,68.0,67.0,-100.00,West,260,4.0,7.0,95,0.14,,,0.29,34.000000,,2013-05-22 04:33:00,
2013-05-21 18:42:00,68.0,67.0,-100.00,West,260,4.0,7.0,95,0.14,,,0.29,34.000000,,2013-05-22 04:42:00,
2013-05-21 19:11:00,68.0,67.0,-100.00,NNE,16,1.0,7.0,95,0.02,,,0.31,17.000000,,2013-05-22 05:11:00,
2013-05-21 19:21:00,68.0,67.0,-100.00,NNE,16,1.0,7.0,95,0.02,,,0.31,17.000000,,2013-05-22 05:21:00,
2013-05-21 19:31:00,68.0,67.0,-100.00,NNE,16,1.0,7.0,95,0.02,,,0.31,17.000000,,2013-05-22 05:31:00,
2013-05-21 19:42:00,68.0,67.0,-100.00,NNE,16,1.0,7.0,95,0.02,,,0.31,17.000000,,2013-05-22 05:42:00,
2013-05-21 20:11:00,67.0,66.0,-100.00,NNW,329,2.0,10.0,96,0.04,,,0.35,0.000000,,2013-05-22 06:11:00,
2013-05-21 20:21:00,67.0,66.0,-100.00,NNW,329,2.0,10.0,96,0.04,,,0.35,0.000000,,2013-05-22 06:21:00,
2013-05-21 20:31:00,67.0,66.0,-100.00,NNW,329,2.0,10.0,96,0.04,,,0.35,0.000000,,2013-05-22 06:31:00,
2013-05-21 20:41:00,67.0,66.0,-100.00,NNW,329,2.0,10.0,96,0.04,,,0.35,0.000000,,2013-05-22 06:41:00,
2013-05-21 21:11:00,67.0,66.0,-100.00,NNW,334,2.0,4.0,97,0.00,,,0.35,0.000000,,2013-05-22 07:11:00,
2013-05-21 21:21:00,67.0,66.0,-100.00,NNW,334,2.0,4.0,97,0.00,,,0.35,0.000000,,2013-05-22 07:21:00,
2013-05-21 21:31:00,67.0,66.0,-100.00,NNW,334,2.0,4.0,97,0.00,,,0.35,0.000000,,2013-05-22 07:31:00,
2013-05-21 21:41:00,67.0,66.0,-100.00,NNW,334,2.0,4.0,97,0.00,,,0.35,0.000000,,2013-05-22 07:41:00,
2013-05-21 22:11:00,67.0,66.0,-100.00,SSE,159,1.0,5.0,97,0.00,,,-99.99,0.000000,,2013-05-22 08:11:00,
2013-05-21 22:22:00,67.0,66.0,-100.00,SSE,159,1.0,5.0,97,0.00,,,-99.99,0.000000,,2013-05-22 08:22:00,
2013-05-21 22:31:00,67.0,66.0,-100.00,SSE,159,1.0,5.0,97,0.00,,,-99.99,0.000000,,2013-05-22 08:31:00,
2013-05-21 22:41:00,67.0,66.0,-100.00,SSE,159,1.0,5.0,97,0.00,,,-99.99,0.000000,,2013-05-22 08:41:00,
2013-05-21 23:11:00,66.0,65.0,-100.00,NNW,338,3.0,5.0,97,0.00,,,0.35,0.000000,,2013-05-22 09:11:00,
2013-05-21 23:21:00,66.0,65.0,-100.00,NNW,338,3.0,5.0,97,0.00,,,0.35,0.000000,,2013-05-22 09:21:00,
2013-05-21 23:32:00,66.0,65.0,-100.00,NNW,338,3.0,5.0,97,0.00,,,0.35,0.000000,,2013-05-22 09:32:00,
2013-05-21 23:42:00,66.0,65.0,-100.00,NNW,338,3.0,5.0,97,0.00,,,0.35,0.000000,,2013-05-22 09:42:00,